Skip Page Navigation
NASA JPL Caltech
NASA Logo - Jet Propulsion Laboratory + View the NASA Portal
+ Center for Near-Earth Object Studies
JPL Home Earth Solar System Stars & Galaxies Technology
JPL Solar System Dynamics
BODIES ORBITS EPHEMERIDES TOOLS PHYSICAL DATA DISCOVERY FAQ SITE MAP
JPL Small-Body Database Browser
Search: [ help ]  
295820 (2008 UE337)
Classification: Main-belt Asteroid          SPK-ID: 2295820
Ephemeris | Orbit Diagram | Orbital Elements | Mission Design | Physical Parameters | Discovery Circumstances ]

[ show orbit diagram ]
Orbital Elements at Epoch 2459000.5 (2020-May-31.0) TDB
Reference: JPL 14 (heliocentric ecliptic J2000)
 Element Value Uncertainty (1-sigma)   Units 
e .04927998645282371 4.3438e-08  
a 2.412928328063466 1.8838e-08 au
q 2.294019252744864 1.0708e-07 au
i 6.33612058435518 7.1923e-06 deg
node 53.41022644576356 5.2693e-05 deg
peri 234.5450227057613 0.00010196 deg
M 156.3557734648089 8.7422e-05 deg
tp 2458405.897841321700
(2018-Oct-14.39784132)
0.00033042 TDB
period 1369.036604026431
3.75
1.6032e-05
4.389e-08
d
yr
n .262958637439799 3.0793e-09 deg/d
Q 2.531837403382069 1.9766e-08 au
  Orbit Determination Parameters
   # obs. used (total)      167  
   data-arc span      7054 days (19.31 yr)  
   first obs. used      2000-09-26  
   last obs. used      2020-01-19  
   planetary ephem.      DE431  
   SB-pert. ephem.      SB431-N16  
   condition code      0  
   norm. resid. RMS      .57195  
   source      ORB  
   producer      Otto Matic  
   solution date      2020-Feb-25 16:42:41  

Additional Information
 Earth MOID = 1.28438 au 
 Jupiter MOID = 2.5266 au 
 T_jup = 3.508 
[ show covariance matrix ]

Ephemeris | Orbit Diagram | Orbital Elements | Mission Design | Physical Parameters | Discovery Circumstances ]

Physical Parameter Table
Parameter Symbol Value Units Sigma Reference Notes
absolute magnitude H 17.0   n/a MPO450205  

295820 (2008 UE337)          Discovered 2008-Oct-20 by Spacewatch at Kitt Peak
Reference: 20110912/Numbers.arcLast Updated: 2011-09-14

Alternate Designations
 2008 UE337 = 2000 SZ372 
Ephemeris | Orbit Diagram | Orbital Elements | Mission Design | Physical Parameters | Discovery Circumstances ]
ABOUT SSD CREDITS/AWARDS PRIVACY/COPYRIGHT GLOSSARY LINKS
FirstGov 2020-Aug-15 11:14 UT
(server date/time)  
NASA Home Page
Site Manager:   Ryan S. Park
Webmaster  Alan B. Chamberlin